Terug naar catalogus

DELTA 1 DEB

ActiefUNKNOWN
NORAD 9702·DEBRIS·🇺🇸 United States

Gelanceerd Nov 6, 1973 vanaf Vandenberg Space Force Base

Loading…

Volgende Passages (komende 24 uur)

TLE

VersSource: Space-Track

Epoch: Sep 14, 2026, 07:01 UTC

1 09702U 73086GA  26257.29236546  .00000397  00000-0  60244-2 0  9998
2 09702 103.0668 180.1742 0694543  95.3476  49.9517 11.43024341200765

Volg DELTA 1 DEB in realtime met AllMySat

Download on the App Store